Tracking 20041 objects as of 22-Nov-2019
Live streaming from Space Station
objects crossing your sky now

COSMOS 1275 DEB

Track COSMOS 1275 DEB now!
10-day predictions


NORAD ID: 42232
Int'l Code: 1981-053UY
Perigee: 928.6 km
Apogee: 1,206.4 km
Inclination: 83.0 °
Period: 106.4 minutes
Semi major axis: 7438 km
RCS: Unknown
Launch date: June 4, 1981
Source: Commonwealth of Independent States (former USSR) (CIS)
Launch site: PLESETSK MISSILE AND SPACE COMPLEX (PKMTR)

Note: This is SATELLITE DEBRIS
aabbcc
Your satellite tracking list
Your tracking list is empty




NASA's NSSDC Master Catalog

Two Line Element Set (TLE):
1 42232U 81053UY  19321.18255514  .00000403  00000-0  51773-3 0  9990
2 42232  83.0135 133.8944 0186727 147.3563 213.9289 13.53239283282248
Source of the keplerian elements: AFSPC